Time,TemperatureF,DewpointF,PressureIn,WindDirection,WindDirectionDegrees,WindSpeedMPH,WindSpeedGustMPH,Humidity,HourlyPrecipIn,Conditions,Clouds,dailyrainin,SoftwareType,DateUTC
2016-02-09 00:00:00,71.2,64.3,29.95,SW,220,0.0,0.0,79,0.00,,,0.00,WeatherCatV2.02B30,2016-02-08 14:00:00,
2016-02-09 00:05:00,71.1,64.2,29.94,SW,220,0.0,0.0,79,0.00,,,0.00,WeatherCatV2.02B30,2016-02-08 14:05:00,
2016-02-09 00:10:00,71.0,64.5,29.95,SW,221,0.0,0.0,80,0.00,,,0.00,WeatherCatV2.02B30,2016-02-08 14:10:00,
2016-02-09 00:15:00,70.9,64.4,29.94,SW,220,0.0,0.0,80,0.00,,,0.00,WeatherCatV2.02B30,2016-02-08 14:15:00,
2016-02-09 00:20:00,70.7,64.2,29.94,SW,220,0.0,0.0,80,0.00,,,0.00,WeatherCatV2.02B30,2016-02-08 14:20:00,
2016-02-09 00:25:00,70.8,64.7,29.94,West,261,0.0,0.0,81,0.00,,,0.00,WeatherCatV2.02B30,2016-02-08 14:25:00,
2016-02-09 00:30:00,70.8,64.3,29.94,West,261,0.0,0.0,80,0.00,,,0.00,WeatherCatV2.02B30,2016-02-08 14:30:00,
2016-02-09 00:35:00,70.7,64.6,29.94,West,260,0.0,0.0,81,0.00,,,0.00,WeatherCatV2.02B30,2016-02-08 14:35:00,
2016-02-09 00:40:00,70.6,64.5,29.93,West,261,0.0,0.0,81,0.00,,,0.00,WeatherCatV2.02B30,2016-02-08 14:40:00,
2016-02-09 00:45:00,70.6,64.5,29.93,West,275,0.0,0.0,81,0.00,,,0.00,WeatherCatV2.02B30,2016-02-08 14:45:00,
2016-02-09 00:50:00,70.5,64.4,29.93,West,275,0.0,0.0,81,0.00,,,0.00,WeatherCatV2.02B30,2016-02-08 14:50:00,
2016-02-09 00:55:00,70.2,64.1,29.93,West,276,0.0,0.0,81,0.00,,,0.00,WeatherCatV2.02B30,2016-02-08 14:55:00,
2016-02-09 01:00:00,69.9,63.8,29.93,West,263,0.0,1.0,81,0.00,,,0.00,WeatherCatV2.02B30,2016-02-08 15:00:00,
2016-02-09 01:05:00,69.9,64.1,29.92,SW,220,0.0,1.0,82,0.00,,,0.00,WeatherCatV2.02B30,2016-02-08 15:05:00,
2016-02-09 01:10:00,69.7,64.0,29.92,SW,221,0.0,0.0,82,0.00,,,0.00,WeatherCatV2.02B30,2016-02-08 15:10:00,
2016-02-09 01:15:00,69.7,64.0,29.92,SW,220,0.0,0.0,82,0.00,,,0.00,WeatherCatV2.02B30,2016-02-08 15:15:00,
2016-02-09 01:20:00,69.6,63.8,29.92,SW,220,0.0,0.0,82,0.00,,,0.00,WeatherCatV2.02B30,2016-02-08 15:20:00,
2016-02-09 01:25:00,69.3,63.9,29.92,SW,220,0.0,0.0,83,0.00,,,0.00,WeatherCatV2.02B30,2016-02-08 15:25:00,
2016-02-09 01:30:00,69.2,63.8,29.92,West,273,0.0,0.0,83,0.00,,,0.00,WeatherCatV2.02B30,2016-02-08 15:30:00,
2016-02-09 01:35:00,69.2,63.8,29.92,West,273,0.0,1.0,83,0.00,,,0.00,WeatherCatV2.02B30,2016-02-08 15:35:00,
2016-02-09 01:40:00,69.2,63.8,29.92,West,273,0.0,1.0,83,0.00,,,0.00,WeatherCatV2.02B30,2016-02-08 15:40:00,
2016-02-09 01:45:00,69.4,64.0,29.92,West,274,0.0,1.0,83,0.00,,,0.00,WeatherCatV2.02B30,2016-02-08 15:45:00,
2016-02-09 01:50:00,69.4,64.0,29.91,WNW,294,0.0,1.0,83,0.00,,,0.00,WeatherCatV2.02B30,2016-02-08 15:50:00,
2016-02-09 01:55:00,69.3,63.9,29.91,WNW,288,0.0,0.0,83,0.00,,,0.00,WeatherCatV2.02B30,2016-02-08 15:55:00,
2016-02-09 02:00:00,69.2,64.2,29.91,WNW,288,0.0,0.0,84,0.00,,,0.00,WeatherCatV2.02B30,2016-02-08 16:00:00,
2016-02-09 02:05:00,69.1,64.1,29.91,WNW,288,0.0,0.0,84,0.00,,,0.00,WeatherCatV2.02B30,2016-02-08 16:05:00,
2016-02-09 02:10:00,69.0,64.0,29.91,WNW,288,0.0,0.0,84,0.00,,,0.00,WeatherCatV2.02B30,2016-02-08 16:10:00,
2016-02-09 02:15:00,68.9,63.9,29.91,WNW,289,0.0,0.0,84,0.00,,,0.00,WeatherCatV2.02B30,2016-02-08 16:15:00,
2016-02-09 02:20:00,68.6,63.6,29.91,WNW,288,0.0,0.0,84,0.00,,,0.00,WeatherCatV2.02B30,2016-02-08 16:20:00,
2016-02-09 02:25:00,68.3,63.6,29.91,WNW,289,0.0,0.0,85,0.00,,,0.00,WeatherCatV2.02B30,2016-02-08 16:25:00,
2016-02-09 02:30:00,68.1,63.4,29.91,WNW,288,0.0,0.0,85,0.00,,,0.00,WeatherCatV2.02B30,2016-02-08 16:30:00,
2016-02-09 02:35:00,68.0,63.7,29.91,South,189,0.0,0.0,86,0.00,,,0.00,WeatherCatV2.02B30,2016-02-08 16:35:00,
2016-02-09 02:40:00,68.0,63.7,29.91,SSW,196,0.0,0.0,86,0.00,,,0.00,WeatherCatV2.02B30,2016-02-08 16:40:00,
2016-02-09 02:45:00,67.9,63.5,29.90,SSW,196,0.0,0.0,86,0.00,,,0.00,WeatherCatV2.02B30,2016-02-08 16:45:00,
2016-02-09 02:50:00,67.7,63.3,29.90,SSW,196,0.0,0.0,86,0.00,,,0.00,WeatherCatV2.02B30,2016-02-08 16:50:00,
2016-02-09 02:55:00,67.6,63.3,29.90,SSW,196,0.0,1.0,86,0.00,,,0.00,WeatherCatV2.02B30,2016-02-08 16:55:00,
2016-02-09 03:00:00,68.0,63.3,29.90,SSW,202,0.0,0.0,85,0.00,,,0.00,WeatherCatV2.02B30,2016-02-08 17:00:00,
2016-02-09 03:05:00,68.1,63.4,29.90,SSW,202,0.0,1.0,85,0.00,,,0.00,WeatherCatV2.02B30,2016-02-08 17:05:00,
2016-02-09 03:10:00,68.4,63.4,29.90,SSW,209,2.0,2.0,84,0.00,,,0.00,WeatherCatV2.02B30,2016-02-08 17:10:00,
2016-02-09 03:15:00,68.9,63.5,29.90,SSW,197,0.0,1.0,83,0.00,,,0.00,WeatherCatV2.02B30,2016-02-08 17:15:00,
2016-02-09 03:20:00,69.0,63.6,29.90,SW,232,0.0,0.0,83,0.00,,,0.00,WeatherCatV2.02B30,2016-02-08 17:20:00,
2016-02-09 03:25:00,68.8,63.4,29.91,West,266,0.0,1.0,83,0.00,,,0.00,WeatherCatV2.02B30,2016-02-08 17:25:00,
2016-02-09 03:30:00,68.7,63.3,29.91,WNW,292,0.0,0.0,83,0.00,,,0.00,WeatherCatV2.02B30,2016-02-08 17:30:00,
2016-02-09 03:35:00,68.6,63.2,29.91,WNW,290,0.0,1.0,83,0.00,,,0.00,WeatherCatV2.02B30,2016-02-08 17:35:00,
2016-02-09 03:40:00,68.5,63.5,29.91,WNW,289,0.0,1.0,84,0.00,,,0.00,WeatherCatV2.02B30,2016-02-08 17:40:00,
2016-02-09 03:45:00,68.3,63.3,29.90,WNW,287,0.0,1.0,84,0.00,,,0.00,WeatherCatV2.02B30,2016-02-08 17:45:00,
2016-02-09 03:50:00,68.2,63.5,29.90,WNW,289,0.0,0.0,85,0.00,,,0.00,WeatherCatV2.02B30,2016-02-08 17:50:00,
2016-02-09 03:55:00,68.1,63.4,29.90,WNW,289,0.0,1.0,85,0.00,,,0.00,WeatherCatV2.02B30,2016-02-08 17:55:00,
2016-02-09 04:00:00,67.9,63.2,29.91,WNW,290,0.0,0.0,85,0.00,,,0.00,WeatherCatV2.02B30,2016-02-08 18:00:00,
2016-02-09 04:05:00,67.6,63.3,29.91,WNW,290,0.0,1.0,86,0.00,,,0.00,WeatherCatV2.02B30,2016-02-08 18:05:00,
2016-02-09 04:10:00,67.4,63.1,29.91,WNW,290,0.0,0.0,86,0.00,,,0.00,WeatherCatV2.02B30,2016-02-08 18:10:00,
2016-02-09 04:15:00,67.2,63.2,29.91,WNW,295,0.0,0.0,87,0.00,,,0.00,WeatherCatV2.02B30,2016-02-08 18:15:00,
2016-02-09 04:20:00,67.1,63.1,29.91,WNW,290,1.0,1.0,87,0.00,,,0.00,WeatherCatV2.02B30,2016-02-08 18:20:00,
2016-02-09 04:25:00,67.1,63.1,29.91,WNW,299,0.0,1.0,87,0.00,,,0.00,WeatherCatV2.02B30,2016-02-08 18:25:00,
2016-02-09 04:30:00,67.1,63.1,29.91,NW,311,0.0,1.0,87,0.00,,,0.00,WeatherCatV2.02B30,2016-02-08 18:30:00,
2016-02-09 04:35:00,67.1,63.1,29.91,NW,311,1.0,1.0,87,0.00,,,0.00,WeatherCatV2.02B30,2016-02-08 18:35:00,
2016-02-09 04:40:00,67.0,63.0,29.91,NW,311,0.0,0.0,87,0.00,,,0.00,WeatherCatV2.02B30,2016-02-08 18:40:00,
2016-02-09 04:45:00,66.9,63.2,29.91,NW,311,0.0,0.0,88,0.00,,,0.00,WeatherCatV2.02B30,2016-02-08 18:45:00,
2016-02-09 04:50:00,66.8,63.1,29.92,WNW,296,0.0,1.0,88,0.00,,,0.00,WeatherCatV2.02B30,2016-02-08 18:50:00,
2016-02-09 04:56:00,66.8,63.1,29.92,WNW,296,0.0,0.0,88,0.00,,,0.00,WeatherCatV2.02B30,2016-02-08 18:56:00,
2016-02-09 05:01:00,66.7,63.0,29.92,WNW,297,0.0,0.0,88,0.00,,,0.00,WeatherCatV2.02B30,2016-02-08 19:01:00,
2016-02-09 05:06:00,66.7,63.0,29.92,WSW,241,0.0,1.0,88,0.00,,,0.00,WeatherCatV2.02B30,2016-02-08 19:06:00,
2016-02-09 05:11:00,66.7,63.0,29.93,WSW,240,0.0,1.0,88,0.00,,,0.00,WeatherCatV2.02B30,2016-02-08 19:11:00,
2016-02-09 05:16:00,67.0,63.3,29.93,SW,217,0.0,1.0,88,0.00,,,0.00,WeatherCatV2.02B30,2016-02-08 19:16:00,
2016-02-09 05:21:00,67.2,63.2,29.93,SSW,210,0.0,1.0,87,0.00,,,0.00,WeatherCatV2.02B30,2016-02-08 19:21:00,
2016-02-09 05:26:00,67.2,63.2,29.93,SSW,210,0.0,0.0,87,0.00,,,0.00,WeatherCatV2.02B30,2016-02-08 19:26:00,
2016-02-09 05:31:00,67.0,63.0,29.93,SSW,210,0.0,0.0,87,0.00,,,0.00,WeatherCatV2.02B30,2016-02-08 19:31:00,
2016-02-09 05:36:00,66.9,62.9,29.93,SSW,210,0.0,0.0,87,0.00,,,0.00,WeatherCatV2.02B30,2016-02-08 19:36:00,
2016-02-09 05:41:00,66.8,63.1,29.94,SSW,210,0.0,0.0,88,0.00,,,0.00,WeatherCatV2.02B30,2016-02-08 19:41:00,
2016-02-09 05:46:00,66.7,63.0,29.94,SSW,210,0.0,0.0,88,0.00,,,0.00,WeatherCatV2.02B30,2016-02-08 19:46:00,
2016-02-09 05:51:00,66.7,63.0,29.94,SSW,210,0.0,0.0,88,0.00,,,0.00,WeatherCatV2.02B30,2016-02-08 19:51:00,
2016-02-09 05:56:00,66.8,63.1,29.94,West,271,0.0,1.0,88,0.00,,,0.00,WeatherCatV2.02B30,2016-02-08 19:56:00,
2016-02-09 06:01:00,66.9,63.2,29.95,West,271,0.0,0.0,88,0.00,,,0.00,WeatherCatV2.02B30,2016-02-08 20:01:00,
2016-02-09 06:06:00,67.0,63.3,29.95,NW,308,0.0,1.0,88,0.00,,,0.00,WeatherCatV2.02B30,2016-02-08 20:06:00,
2016-02-09 06:11:00,67.3,63.6,29.95,NW,308,0.0,0.0,88,0.00,,,0.00,WeatherCatV2.02B30,2016-02-08 20:11:00,
2016-02-09 06:16:00,67.5,63.8,29.95,NW,306,0.0,1.0,88,0.00,,,0.00,WeatherCatV2.02B30,2016-02-08 20:16:00,
2016-02-09 06:21:00,67.7,64.0,29.95,NW,306,0.0,0.0,88,0.00,,,0.00,WeatherCatV2.02B30,2016-02-08 20:21:00,
2016-02-09 06:26:00,68.1,64.1,29.95,WNW,285,0.0,1.0,87,0.00,,,0.00,WeatherCatV2.02B30,2016-02-08 20:26:00,
2016-02-09 06:31:00,68.8,64.4,29.95,NNE,18,0.0,1.0,86,0.00,,,0.00,WeatherCatV2.02B30,2016-02-08 20:31:00,
2016-02-09 06:36:00,69.7,64.6,29.96,WNW,299,0.0,0.0,84,0.00,,,0.00,WeatherCatV2.02B30,2016-02-08 20:36:00,
2016-02-09 06:41:00,70.4,65.0,29.96,WNW,292,1.0,1.0,83,0.00,,,0.00,WeatherCatV2.02B30,2016-02-08 20:41:00,
2016-02-09 06:46:00,71.2,65.4,29.96,WNW,290,0.0,1.0,82,0.00,,,0.00,WeatherCatV2.02B30,2016-02-08 20:46:00,
2016-02-09 06:56:00,72.2,65.7,29.96,SW,218,0.0,1.0,80,0.00,,,0.00,WeatherCatV2.02B30,2016-02-08 20:56:00,
2016-02-09 07:01:00,72.4,65.9,29.96,West,276,0.0,2.0,80,0.00,,,0.00,WeatherCatV2.02B30,2016-02-08 21:01:00,
2016-02-09 07:06:00,72.9,65.6,29.96,SSW,210,2.0,5.0,78,0.00,,,0.00,WeatherCatV2.02B30,2016-02-08 21:06:00,
2016-02-09 07:11:00,73.5,65.8,29.96,SW,217,1.0,4.0,77,0.00,,,0.00,WeatherCatV2.02B30,2016-02-08 21:11:00,
2016-02-09 07:16:00,73.9,65.8,29.97,SSW,213,0.0,1.0,76,0.00,,,0.00,WeatherCatV2.02B30,2016-02-08 21:16:00,
2016-02-09 07:21:00,74.3,66.2,29.97,WSW,246,0.0,1.0,76,0.00,,,0.00,WeatherCatV2.02B30,2016-02-08 21:21:00,
2016-02-09 07:26:00,74.5,66.0,29.97,WSW,243,0.0,3.0,75,0.00,,,0.00,WeatherCatV2.02B30,2016-02-08 21:26:00,
2016-02-09 07:31:00,74.7,66.2,29.97,West,269,0.0,2.0,75,0.00,,,0.00,WeatherCatV2.02B30,2016-02-08 21:31:00,
2016-02-09 07:36:00,75.3,66.4,29.97,NNW,327,0.0,4.0,74,0.00,,,0.00,WeatherCatV2.02B30,2016-02-08 21:36:00,
2016-02-09 07:41:00,75.8,66.1,29.97,WSW,252,1.0,5.0,72,0.00,,,0.00,WeatherCatV2.02B30,2016-02-08 21:41:00,
2016-02-09 07:46:00,76.2,66.5,29.97,SW,217,2.0,5.0,72,0.00,,,0.00,WeatherCatV2.02B30,2016-02-08 21:46:00,
2016-02-09 07:51:00,76.7,67.0,29.97,West,273,1.0,1.0,72,0.00,,,0.00,WeatherCatV2.02B30,2016-02-08 21:51:00,
2016-02-09 07:56:00,76.6,66.5,29.97,SW,230,1.0,3.0,71,0.00,,,0.00,WeatherCatV2.02B30,2016-02-08 21:56:00,
2016-02-09 08:01:00,76.7,66.6,29.97,SW,227,0.0,7.0,71,0.00,,,0.00,WeatherCatV2.02B30,2016-02-08 22:01:00,
2016-02-09 08:06:00,77.6,67.8,29.97,NE,38,2.0,3.0,72,0.00,,,0.00,WeatherCatV2.02B30,2016-02-08 22:06:00,
2016-02-09 08:11:00,78.2,66.8,29.97,West,266,3.0,6.0,68,0.00,,,0.00,WeatherCatV2.02B30,2016-02-08 22:11:00,
2016-02-09 08:16:00,78.2,66.8,29.97,SW,232,1.0,5.0,68,0.00,,,0.00,WeatherCatV2.02B30,2016-02-08 22:16:00,
2016-02-09 08:21:00,79.3,67.4,29.97,WNW,289,2.0,3.0,67,0.00,,,0.00,WeatherCatV2.02B30,2016-02-08 22:21:00,
2016-02-09 08:26:00,79.6,66.8,29.97,SW,231,4.0,5.0,65,0.00,,,0.00,WeatherCatV2.02B30,2016-02-08 22:26:00,
2016-02-09 08:31:00,79.9,66.2,29.97,SW,236,3.0,3.0,63,0.00,,,0.00,WeatherCatV2.02B30,2016-02-08 22:31:00,
2016-02-09 08:36:00,79.5,65.8,29.97,West,280,2.0,9.0,63,0.00,,,0.00,WeatherCatV2.02B30,2016-02-08 22:36:00,
2016-02-09 08:41:00,79.6,66.3,29.97,SSW,204,9.0,10.0,64,0.00,,,0.00,WeatherCatV2.02B30,2016-02-08 22:41:00,
2016-02-09 08:46:00,79.6,66.3,29.97,SW,225,5.0,7.0,64,0.00,,,0.00,WeatherCatV2.02B30,2016-02-08 22:46:00,
2016-02-09 08:51:00,79.4,66.1,29.97,SSW,206,5.0,9.0,64,0.00,,,0.00,WeatherCatV2.02B30,2016-02-08 22:51:00,
2016-02-09 08:56:00,79.0,65.8,29.97,SW,230,1.0,6.0,64,0.00,,,0.00,WeatherCatV2.02B30,2016-02-08 22:56:00,
2016-02-09 09:01:00,78.9,66.1,29.97,WSW,246,1.0,2.0,65,0.00,,,0.00,WeatherCatV2.02B30,2016-02-08 23:01:00,
2016-02-09 09:06:00,79.6,66.3,29.97,West,261,3.0,7.0,64,0.00,,,0.00,WeatherCatV2.02B30,2016-02-08 23:06:00,
2016-02-09 09:11:00,79.9,66.2,29.97,WSW,242,7.0,7.0,63,0.00,,,0.00,WeatherCatV2.02B30,2016-02-08 23:11:00,
2016-02-09 09:16:00,79.5,65.8,29.97,SW,223,5.0,10.0,63,0.00,,,0.00,WeatherCatV2.02B30,2016-02-08 23:16:00,
2016-02-09 09:21:00,79.9,65.2,29.97,SW,223,4.0,7.0,61,0.00,,,0.00,WeatherCatV2.02B30,2016-02-08 23:21:00,
2016-02-09 09:26:00,80.8,65.6,29.97,SW,220,2.0,2.0,60,0.00,,,0.00,WeatherCatV2.02B30,2016-02-08 23:26:00,
2016-02-09 09:31:00,81.9,65.6,29.97,SSW,206,8.0,8.0,58,0.00,,,0.00,WeatherCatV2.02B30,2016-02-08 23:31:00,
2016-02-09 09:36:00,82.6,66.8,29.97,WSW,242,6.0,8.0,59,0.00,,,0.00,WeatherCatV2.02B30,2016-02-08 23:36:00,
2016-02-09 09:41:00,82.4,64.6,29.97,SW,229,6.0,8.0,55,0.00,,,0.00,WeatherCatV2.02B30,2016-02-08 23:41:00,
2016-02-09 09:46:00,81.2,65.0,29.97,SSW,211,6.0,9.0,58,0.00,,,0.00,WeatherCatV2.02B30,2016-02-08 23:46:00,
2016-02-09 09:56:00,81.5,65.8,29.97,NW,316,1.0,4.0,59,0.00,,,0.00,WeatherCatV2.02B30,2016-02-08 23:56:00,
2016-02-09 10:01:00,82.2,63.9,29.97,SW,220,5.0,10.0,54,0.00,,,0.00,WeatherCatV2.02B30,2016-02-09 00:01:00,
2016-02-09 10:06:00,82.6,64.2,29.97,SSW,213,3.0,6.0,54,0.00,,,0.00,WeatherCatV2.02B30,2016-02-09 00:06:00,
2016-02-09 10:11:00,82.9,64.5,29.96,WSW,237,4.0,7.0,54,0.00,,,0.00,WeatherCatV2.02B30,2016-02-09 00:11:00,
2016-02-09 10:16:00,82.7,63.8,29.96,South,185,4.0,11.0,53,0.00,,,0.00,WeatherCatV2.02B30,2016-02-09 00:16:00,
2016-02-09 10:21:00,82.0,64.2,29.96,SW,230,3.0,10.0,55,0.00,,,0.00,WeatherCatV2.02B30,2016-02-09 00:21:00,
2016-02-09 10:26:00,82.1,65.8,29.96,NE,50,2.0,6.0,58,0.00,,,0.00,WeatherCatV2.02B30,2016-02-09 00:26:00,
2016-02-09 10:31:00,83.5,66.6,29.96,North,353,3.0,5.0,57,0.00,,,0.00,WeatherCatV2.02B30,2016-02-09 00:31:00,
2016-02-09 10:36:00,83.8,66.9,29.96,WNW,299,2.0,3.0,57,0.00,,,0.00,WeatherCatV2.02B30,2016-02-09 00:36:00,
2016-02-09 10:41:00,84.4,67.0,29.95,West,275,4.0,8.0,56,0.00,,,0.00,WeatherCatV2.02B30,2016-02-09 00:41:00,
2016-02-09 10:46:00,84.0,66.6,29.95,SE,136,2.0,4.0,56,0.00,,,0.00,WeatherCatV2.02B30,2016-02-09 00:46:00,
2016-02-09 10:51:00,83.9,66.0,29.95,NNW,327,2.0,4.0,55,0.00,,,0.00,WeatherCatV2.02B30,2016-02-09 00:51:00,
2016-02-09 10:56:00,82.8,66.0,29.95,WSW,240,4.0,10.0,57,0.00,,,0.00,WeatherCatV2.02B30,2016-02-09 00:56:00,
2016-02-09 11:01:00,81.7,65.5,29.95,SW,220,6.0,8.0,58,0.00,,,0.00,WeatherCatV2.02B30,2016-02-09 01:01:00,
2016-02-09 11:11:00,81.2,66.0,29.95,WSW,255,2.0,7.0,60,0.00,,,0.00,WeatherCatV2.02B30,2016-02-09 01:11:00,
2016-02-09 11:16:00,81.4,66.2,29.95,SW,223,5.0,15.0,60,0.00,,,0.00,WeatherCatV2.02B30,2016-02-09 01:16:00,
2016-02-09 11:21:00,82.5,65.7,29.94,West,278,4.0,11.0,57,0.00,,,0.00,WeatherCatV2.02B30,2016-02-09 01:21:00,
2016-02-09 11:26:00,83.9,66.0,29.94,SW,220,10.0,10.0,55,0.00,,,0.00,WeatherCatV2.02B30,2016-02-09 01:26:00,
2016-02-09 11:31:00,84.8,64.6,29.94,East,97,2.0,7.0,51,0.00,,,0.00,WeatherCatV2.02B30,2016-02-09 01:31:00,
2016-02-09 11:36:00,85.4,64.0,29.94,NW,313,3.0,11.0,49,0.00,,,0.00,WeatherCatV2.02B30,2016-02-09 01:36:00,
2016-02-09 11:41:00,85.7,64.3,29.94,West,265,3.0,4.0,49,0.00,,,0.00,WeatherCatV2.02B30,2016-02-09 01:41:00,
2016-02-09 11:47:00,86.0,64.6,29.93,NNE,24,1.0,7.0,49,0.00,,,0.00,WeatherCatV2.02B30,2016-02-09 01:47:00,
2016-02-09 11:57:00,85.7,63.7,29.93,SSW,202,5.0,11.0,48,0.00,,,0.00,WeatherCatV2.02B30,2016-02-09 01:57:00,
2016-02-09 12:02:00,85.5,64.7,29.93,SW,228,3.0,6.0,50,0.00,,,0.00,WeatherCatV2.02B30,2016-02-09 02:02:00,
2016-02-09 12:07:00,85.7,65.4,29.93,SW,216,5.0,7.0,51,0.00,,,0.00,WeatherCatV2.02B30,2016-02-09 02:07:00,
2016-02-09 12:12:00,85.2,65.6,29.93,WSW,240,5.0,11.0,52,0.00,,,0.00,WeatherCatV2.02B30,2016-02-09 02:12:00,
2016-02-09 12:22:00,85.3,65.7,29.93,NNE,18,1.0,7.0,52,0.00,,,0.00,WeatherCatV2.02B30,2016-02-09 02:22:00,
2016-02-09 12:27:00,85.6,65.9,29.92,SW,234,5.0,12.0,52,0.00,,,0.00,WeatherCatV2.02B30,2016-02-09 02:27:00,
2016-02-09 12:32:00,86.2,66.5,29.92,WNW,291,3.0,4.0,52,0.00,,,0.00,WeatherCatV2.02B30,2016-02-09 02:32:00,
2016-02-09 12:37:00,86.7,65.2,29.92,SE,135,3.0,8.0,49,0.00,,,0.00,WeatherCatV2.02B30,2016-02-09 02:37:00,
2016-02-09 12:42:00,86.5,65.6,29.92,WSW,242,5.0,7.0,50,0.00,,,0.00,WeatherCatV2.02B30,2016-02-09 02:42:00,
2016-02-09 12:47:00,86.7,65.8,29.92,WSW,251,5.0,11.0,50,0.00,,,0.00,WeatherCatV2.02B30,2016-02-09 02:47:00,
2016-02-09 12:52:00,86.5,65.6,29.92,South,191,5.0,10.0,50,0.00,,,0.00,WeatherCatV2.02B30,2016-02-09 02:52:00,
2016-02-09 12:57:00,85.9,65.1,29.92,ESE,102,1.0,6.0,50,0.00,,,0.00,WeatherCatV2.02B30,2016-02-09 02:57:00,
2016-02-09 13:02:00,86.6,66.3,29.92,NNW,330,3.0,7.0,51,0.00,,,0.00,WeatherCatV2.02B30,2016-02-09 03:02:00,
2016-02-09 13:07:00,86.6,66.3,29.92,SE,145,3.0,7.0,51,0.00,,,0.00,WeatherCatV2.02B30,2016-02-09 03:07:00,
2016-02-09 13:12:00,86.7,65.8,29.92,WNW,282,2.0,8.0,50,0.00,,,0.00,WeatherCatV2.02B30,2016-02-09 03:12:00,
2016-02-09 13:17:00,86.7,66.4,29.92,West,268,2.0,4.0,51,0.00,,,0.00,WeatherCatV2.02B30,2016-02-09 03:17:00,
2016-02-09 13:22:00,86.7,65.8,29.92,WSW,238,2.0,5.0,50,0.00,,,0.00,WeatherCatV2.02B30,2016-02-09 03:22:00,
2016-02-09 13:27:00,86.0,65.7,29.91,SSW,211,3.0,4.0,51,0.00,,,0.00,WeatherCatV2.02B30,2016-02-09 03:27:00,
2016-02-09 13:32:00,86.5,65.0,29.91,WNW,289,2.0,4.0,49,0.00,,,0.00,WeatherCatV2.02B30,2016-02-09 03:32:00,
2016-02-09 13:37:00,87.4,65.9,29.91,NNE,32,2.0,3.0,49,0.00,,,0.00,WeatherCatV2.02B30,2016-02-09 03:37:00,
2016-02-09 13:42:00,87.5,65.3,29.91,SSW,192,10.0,10.0,48,0.00,,,0.00,WeatherCatV2.02B30,2016-02-09 03:42:00,
2016-02-09 13:47:00,87.7,66.1,29.91,WNW,284,2.0,6.0,49,0.00,,,0.00,WeatherCatV2.02B30,2016-02-09 03:47:00,
2016-02-09 13:52:00,87.5,66.5,29.91,West,276,4.0,5.0,50,0.00,,,0.00,WeatherCatV2.02B30,2016-02-09 03:52:00,
2016-02-09 13:57:00,86.8,66.5,29.91,NNE,16,1.0,10.0,51,0.00,,,0.00,WeatherCatV2.02B30,2016-02-09 03:57:00,
2016-02-09 14:02:00,87.3,67.5,29.91,South,190,3.0,5.0,52,0.00,,,0.00,WeatherCatV2.02B30,2016-02-09 04:02:00,
2016-02-09 14:07:00,87.5,66.5,29.91,SSW,206,3.0,7.0,50,0.00,,,0.00,WeatherCatV2.02B30,2016-02-09 04:07:00,
2016-02-09 14:12:00,87.3,66.3,29.91,NW,323,2.0,8.0,50,0.00,,,0.00,WeatherCatV2.02B30,2016-02-09 04:12:00,
2016-02-09 14:17:00,87.4,67.0,29.90,ENE,59,11.0,11.0,51,0.00,,,0.00,WeatherCatV2.02B30,2016-02-09 04:17:00,
2016-02-09 14:27:00,87.4,66.4,29.90,WNW,301,4.0,8.0,50,0.00,,,0.00,WeatherCatV2.02B30,2016-02-09 04:27:00,
2016-02-09 14:32:00,87.2,66.3,29.90,NW,304,3.0,7.0,50,0.00,,,0.00,WeatherCatV2.02B30,2016-02-09 04:32:00,
2016-02-09 14:37:00,86.5,66.2,29.90,NNW,341,1.0,9.0,51,0.00,,,0.00,WeatherCatV2.02B30,2016-02-09 04:37:00,
2016-02-09 14:42:00,86.1,65.8,29.90,East,86,2.0,13.0,51,0.00,,,0.00,WeatherCatV2.02B30,2016-02-09 04:42:00,
2016-02-09 14:47:00,86.2,65.9,29.90,NW,307,5.0,5.0,51,0.00,,,0.00,WeatherCatV2.02B30,2016-02-09 04:47:00,
2016-02-09 14:52:00,86.0,65.2,29.90,North,356,2.0,13.0,50,0.00,,,0.00,WeatherCatV2.02B30,2016-02-09 04:52:00,
2016-02-09 15:02:00,86.8,65.9,29.89,ENE,57,3.0,6.0,50,0.00,,,0.00,WeatherCatV2.02B30,2016-02-09 05:02:00,
2016-02-09 15:07:00,86.5,65.6,29.90,NNW,329,1.0,3.0,50,0.00,,,0.00,WeatherCatV2.02B30,2016-02-09 05:07:00,
2016-02-09 15:17:00,86.4,64.9,29.89,NNW,328,3.0,8.0,49,0.00,,,0.00,WeatherCatV2.02B30,2016-02-09 05:17:00,
2016-02-09 15:27:00,86.6,65.1,29.89,West,265,9.0,13.0,49,0.00,,,0.00,WeatherCatV2.02B30,2016-02-09 05:27:00,
2016-02-09 15:37:00,86.6,65.1,29.90,North,5,1.0,6.0,49,0.00,,,0.00,WeatherCatV2.02B30,2016-02-09 05:37:00,
2016-02-09 15:42:00,86.4,64.9,29.90,NNW,344,2.0,5.0,49,0.00,,,0.00,WeatherCatV2.02B30,2016-02-09 05:42:00,
2016-02-09 15:47:00,86.4,65.5,29.90,NNW,329,4.0,13.0,50,0.00,,,0.00,WeatherCatV2.02B30,2016-02-09 05:47:00,
2016-02-09 15:52:00,86.0,65.7,29.90,NNW,334,1.0,6.0,51,0.00,,,0.00,WeatherCatV2.02B30,2016-02-09 05:52:00,
2016-02-09 15:57:00,85.6,65.9,29.90,North,351,3.0,6.0,52,0.00,,,0.00,WeatherCatV2.02B30,2016-02-09 05:57:00,
2016-02-09 16:07:00,85.2,64.4,29.90,SSE,157,2.0,14.0,50,0.00,,,0.00,WeatherCatV2.02B30,2016-02-09 06:07:00,
2016-02-09 16:18:00,85.5,65.3,29.90,NW,326,1.0,3.0,51,0.00,,,0.00,WeatherCatV2.02B30,2016-02-09 06:18:00,
2016-02-09 16:23:00,85.6,65.4,29.90,South,170,1.0,8.0,51,0.00,,,0.00,WeatherCatV2.02B30,2016-02-09 06:23:00,
2016-02-09 16:28:00,85.7,66.0,29.90,SSW,210,3.0,3.0,52,0.00,,,0.00,WeatherCatV2.02B30,2016-02-09 06:28:00,
2016-02-09 16:33:00,85.6,65.4,29.90,SW,229,2.0,5.0,51,0.00,,,0.00,WeatherCatV2.02B30,2016-02-09 06:33:00,
2016-02-09 16:38:00,85.2,65.0,29.90,NW,305,6.0,10.0,51,0.00,,,0.00,WeatherCatV2.02B30,2016-02-09 06:38:00,
2016-02-09 16:43:00,83.9,64.9,29.91,WSW,256,3.0,6.0,53,0.00,,,0.00,WeatherCatV2.02B30,2016-02-09 06:43:00,
2016-02-09 16:48:00,83.3,64.9,29.91,East,93,1.0,3.0,54,0.00,,,0.00,WeatherCatV2.02B30,2016-02-09 06:48:00,
2016-02-09 16:53:00,83.3,64.9,29.90,West,277,2.0,5.0,54,0.00,,,0.00,WeatherCatV2.02B30,2016-02-09 06:53:00,
2016-02-09 16:58:00,84.1,65.6,29.91,NW,317,1.0,4.0,54,0.00,,,0.00,WeatherCatV2.02B30,2016-02-09 06:58:00,
2016-02-09 17:03:00,83.7,65.3,29.91,WNW,289,2.0,5.0,54,0.00,,,0.00,WeatherCatV2.02B30,2016-02-09 07:03:00,
2016-02-09 17:08:00,83.9,65.4,29.91,ENE,70,2.0,5.0,54,0.00,,,0.00,WeatherCatV2.02B30,2016-02-09 07:08:00,
2016-02-09 17:13:00,83.5,65.1,29.91,WSW,237,1.0,4.0,54,0.00,,,0.00,WeatherCatV2.02B30,2016-02-09 07:13:00,
2016-02-09 17:18:00,82.7,64.3,29.91,WNW,303,1.0,6.0,54,0.00,,,0.00,WeatherCatV2.02B30,2016-02-09 07:18:00,
2016-02-09 17:28:00,81.6,64.4,29.91,West,268,3.0,6.0,56,0.00,,,0.00,WeatherCatV2.02B30,2016-02-09 07:28:00,
2016-02-09 17:33:00,81.9,64.1,29.92,NE,48,1.0,6.0,55,0.00,,,0.00,WeatherCatV2.02B30,2016-02-09 07:33:00,
2016-02-09 17:38:00,82.1,63.8,29.91,ENE,71,1.0,8.0,54,0.00,,,0.00,WeatherCatV2.02B30,2016-02-09 07:38:00,
2016-02-09 17:43:00,82.3,64.0,29.92,NNE,23,4.0,5.0,54,0.00,,,0.00,WeatherCatV2.02B30,2016-02-09 07:43:00,
2016-02-09 17:48:00,82.5,64.2,29.92,North,1,0.0,4.0,54,0.00,,,0.00,WeatherCatV2.02B30,2016-02-09 07:48:00,
2016-02-09 17:58:00,83.0,65.1,29.92,SW,232,3.0,3.0,55,0.00,,,0.00,WeatherCatV2.02B30,2016-02-09 07:58:00,
2016-02-09 18:03:00,82.1,62.2,29.92,NNW,341,1.0,9.0,51,0.00,,,0.00,WeatherCatV2.02B30,2016-02-09 08:03:00,
2016-02-09 18:08:00,81.8,62.4,29.92,NW,311,1.0,2.0,52,0.00,,,0.00,WeatherCatV2.02B30,2016-02-09 08:08:00,
2016-02-09 18:13:00,81.4,62.6,29.93,SE,135,0.0,2.0,53,0.00,,,0.00,WeatherCatV2.02B30,2016-02-09 08:13:00,
2016-02-09 18:18:00,81.3,63.0,29.93,SW,235,0.0,2.0,54,0.00,,,0.00,WeatherCatV2.02B30,2016-02-09 08:18:00,
2016-02-09 18:23:00,80.9,63.7,29.93,NNW,337,0.0,6.0,56,0.00,,,0.00,WeatherCatV2.02B30,2016-02-09 08:23:00,
2016-02-09 18:28:00,80.5,63.8,29.93,NNW,337,0.0,0.0,57,0.00,,,0.00,WeatherCatV2.02B30,2016-02-09 08:28:00,
2016-02-09 18:33:00,79.7,63.6,29.93,NW,322,2.0,2.0,58,0.00,,,0.00,WeatherCatV2.02B30,2016-02-09 08:33:00,
2016-02-09 18:38:00,78.9,62.8,29.93,North,355,1.0,4.0,58,0.00,,,0.00,WeatherCatV2.02B30,2016-02-09 08:38:00,
2016-02-09 18:43:00,78.4,62.4,29.94,SW,227,3.0,6.0,58,0.00,,,0.00,WeatherCatV2.02B30,2016-02-09 08:43:00,
2016-02-09 18:48:00,78.2,61.2,29.94,West,281,2.0,9.0,56,0.00,,,0.00,WeatherCatV2.02B30,2016-02-09 08:48:00,